Chicopee, MA

10:48 AM EST on December 06, 2019 (GMT -0500)
Westover Air Reserve Base / Metropolitan Airport

Weather History for KCEF - November, 2019

Change the Weather History Date:

Friday, November 22, 2019

  Actual Average Record
Temperature  
Mean Temperature 42 °F -  
Max Temperature 48 °F 44 °F 59 °F (2007)
Min Temperature 33 °F 28 °F 10 °F (2018)
Degree Days  
Heating Degree Days 24    
Moisture  
Dew Point 31 °F    
Average Humidity 64    
Maximum Humidity 81    
Minimum Humidity 44    
Precipitation  
Precipitation 0.05 in - - ()
Sea Level Pressure  
Sea Level Pressure 29.72 in    
Wind  
Wind Speed 12 mph ()    
Max Wind Speed 26 mph    
Max Gust Speed 41 mph    
Visibility 9.2 miles    
Events Rain    
Averages and records for this station are not official NWS values.
T = Trace of Precipitation, MM = Missing Value Source: Averaged Metar Reports

Daily Weather History Graph

Daily Weather History Graph

Search for Another Location

Airport or City:

Astronomy

Nov. 22, 2019 Rise Set
Actual Time 6:48 AM EST 4:23 PM EST
Civil Twilight 6:18 AM EST 4:53 PM EST
Nautical Twilight 5:43 AM EST 5:28 PM EST
Astronomical Twilight 5:10 AM EST 6:01 PM EST
Moon 1:44 AM EST (11/22) 2:28 PM EST (11/22)
Length of Visible Light 10h 35m
Length of Day
9h 34m
Waning Crescent, 20% of the Moon is Illuminated
Nov 22
Waning Crescent
Nov 26
New
Dec 4
First Quarter
Dec 12
Full
Dec 18
Last Quarter

Hourly Weather History & Observations

Time (EST) Temp. Windchill Dew Point Humidity Pressure Visibility Wind Dir Wind Speed Gust Speed Precip Events Conditions
2:56 AM 44.8 °F 38.3 °F 36.7 °F 73% 29.85 in 10.0 mi South 13.8 mph - N/A   Overcast
3:56 AM 45.9 °F 40.4 °F 36.3 °F 69% 29.83 in 10.0 mi SSW 11.5 mph - 0.00 in   Overcast
7:56 AM 46.8 °F - 34.9 °F 63% 29.76 in 10.0 mi South 10.4 mph - N/A   Overcast
8:56 AM 47.3 °F - 34.9 °F 62% 29.73 in 10.0 mi SSW 13.8 mph - N/A   Overcast
9:56 AM 48.4 °F - 36.0 °F 62% 29.68 in 10.0 mi SSW 10.4 mph - N/A   Overcast
10:56 AM 48.4 °F - 36.3 °F 63% 29.66 in 10.0 mi SSW 13.8 mph - 0.00 in Rain Light Rain
11:56 AM 47.8 °F - 38.5 °F 70% 29.62 in 10.0 mi SSW 10.4 mph - 0.01 in Rain Light Rain
12:02 PM 48.2 °F - 39.2 °F 71% 29.61 in 10.0 mi SSW 10.4 mph - N/A   Overcast
12:12 PM 48.2 °F - 39.2 °F 71% 29.61 in 6.0 mi SSW 10.4 mph - N/A Rain Light Rain
12:56 PM 47.5 °F - 41.0 °F 78% 29.62 in 5.0 mi West 9.2 mph - 0.00 in Rain Light Rain
1:10 PM 46.4 °F 40.1 °F 41.0 °F 81% 29.63 in 5.0 mi West 15.0 mph - N/A Rain Light Rain
1:32 PM 44.6 °F 37.2 °F 39.2 °F 81% 29.65 in 6.0 mi NW 17.3 mph 25.3 mph N/A Rain Light Rain
1:56 PM 43.7 °F 39.1 °F 37.6 °F 79% 29.65 in 10.0 mi NNW 8.1 mph 18.4 mph 0.04 in Rain Light Rain
2:56 PM 42.8 °F 36.6 °F 33.8 °F 70% 29.65 in 10.0 mi WNW 11.5 mph 20.7 mph 0.00 in Rain Light Rain
3:46 PM 41.0 °F 33.9 °F 33.8 °F 76% 29.68 in 10.0 mi WNW 12.7 mph 19.6 mph N/A Rain Light Rain
4:35 PM 41.0 °F 31.6 °F 28.4 °F 61% 29.68 in 10.0 mi WNW 20.7 mph 32.2 mph N/A   Mostly Cloudy
4:56 PM 41.0 °F 31.6 °F 26.6 °F 57% 29.70 in 10.0 mi WNW 20.7 mph 35.7 mph 0.00 in   Overcast
5:56 PM 40.5 °F 31.2 °F 24.6 °F 53% 29.73 in 10.0 mi WNW 19.6 mph 31.1 mph N/A   Mostly Cloudy
6:56 PM 39.2 °F 29.3 °F 21.2 °F 49% 29.76 in 10.0 mi WNW 20.7 mph 41.4 mph N/A   Scattered Clouds
7:56 PM 37.4 °F 25.6 °F 21.2 °F 52% 29.81 in 10.0 mi WNW 26.5 mph 40.3 mph N/A   Partly Cloudy
8:56 PM 37.8 °F 28.0 °F 20.3 °F 49% 29.83 in 10.0 mi NW 18.4 mph 33.4 mph N/A   Mostly Cloudy
9:56 PM 37.2 °F 28.7 °F 20.3 °F 50% 29.86 in 10.0 mi NW 13.8 mph 23.0 mph N/A   Scattered Clouds
10:56 PM 35.4 °F 24.9 °F 15.6 °F 44% 29.88 in 10.0 mi NW 18.4 mph 26.5 mph N/A   Scattered Clouds
11:56 PM 33.8 °F 23.9 °F 17.6 °F 52% 29.90 in 10.0 mi WNW 15.0 mph 25.3 mph N/A   Clear